[[{"header":{"parameterUnit":"m.s-1","parameterCategory":1,"la1":30.2991,"la2":30.254,"lo1":-89.0895,"lo2":-89.0444,"dy":0.0017,"dx":0.0017,"nx":28,"ny":28,"refTime":"2023-07-21T21:00:00:Z","depth":0,"parameterNumber":2,"parameterNumberName":"U-component_of_WINDS"},"data":[0,0,0,0,0,0,0,0,0,0,0,0,0,0,0,0,0,0,0,0,0,0,0,0,0,0,0,0,0,0,0,0,0,0,0,0,0,0,0,0,0,0,0,0,0,0,0,0,0,0,0,0,0,0,0,0,0,0,1.5076,1.5077,0,1.5233,1.5235,1.5237,1.5288,1.5287,1.5287,1.5286,1.545,1.5455,1.546,0,0,0,0,0,0,0,0,0,0,0,0,0,1.4822,1.4826,1.5076,1.5078,1.508,1.5233,1.5235,1.5238,1.5288,1.5287,1.5287,1.5286,1.5449,1.5455,1.5461,0,0,0,0,0,0,0,0,0,0,0,0,0,1.4951,1.4828,1.5075,1.5123,1.5129,1.5233,1.5235,1.5238,1.5288,1.5287,1.5286,1.5285,1.5447,1.5454,1.5461,1.5529,0,0,1.5485,1.5488,0,0,0,0,0,0,0,0,1.4944,1.496,1.5114,1.512,1.5127,1.524,1.5206,1.5336,1.5289,1.5228,1.5286,1.5285,1.5381,1.5394,1.5426,1.5537,1.5544,1.5485,1.549,1.5493,1.5495,0,0,0,0,0,0,0,1.4935,1.4954,1.5138,1.5117,1.5124,1.5138,1.5155,1.5231,1.5309,1.5233,1.5237,1.5255,1.5385,1.5419,1.543,1.5547,1.5485,1.5492,1.5496,1.5499,1.5724,1.5725,0,0,0,0,0,0,1.4917,1.4946,1.5133,1.5143,1.5031,1.5144,1.5163,1.5205,1.5308,1.5323,1.5256,1.5257,1.5406,1.5422,1.5436,1.5524,1.5493,1.55,1.5504,1.5722,1.5724,1.5726,0,0,0,0,0,0,1.4912,1.4933,1.5127,1.5046,1.5071,1.5149,1.5196,1.5209,1.5243,1.5325,1.534,1.5276,1.5406,1.5426,1.5506,1.5531,1.5503,1.551,1.5721,1.5723,1.5725,1.5699,0,0,0,0,0,0,1.4904,1.4931,1.4957,1.5046,1.5076,1.5193,1.5197,1.5212,1.5255,1.5258,1.5348,1.5362,1.5407,1.5495,1.5514,1.5541,1.5516,1.5719,1.5722,1.5724,1.5698,1.57,1.5702,0,0,0,0,0,1.4895,1.4943,1.4958,1.498,1.5109,1.5194,1.5211,1.5261,1.5257,1.5284,1.5338,1.5359,1.5525,1.5502,1.5524,1.5554,1.5717,1.5721,1.5724,1.5697,1.57,1.5702,0,0,0,0,0,0,1.4855,1.4956,1.4973,1.5051,1.5114,1.5202,1.5238,1.5261,1.5327,1.5327,1.5386,1.5406,1.5483,1.5527,1.55,1.5626,1.5622,1.563,1.5595,1.5598,1.5599,1.5587,1.5523,0,0,0,0,0,1.4855,1.4915,1.5,1.5061,1.5092,1.5159,1.5198,1.5231,1.5298,1.5325,1.5384,1.545,1.5517,1.556,1.5626,1.5705,1.5726,1.5736,1.5738,1.5739,1.5745,1.5792,1.5798,1.5736,1.5736,1.5736,0,0,1.4857,1.4919,1.4953,1.5055,1.5107,1.5169,1.5181,1.5245,1.5292,1.5335,1.5415,1.5461,1.5538,1.5618,1.5657,1.5657,1.5767,1.5743,1.5743,1.5749,1.5796,1.5802,1.5807,1.5738,1.5738,1.5738,0,0,1.4891,1.4943,1.5001,1.5053,1.5132,1.5177,1.5191,1.5277,1.5309,1.5389,1.5423,1.5481,1.5594,1.5648,1.5691,1.5747,1.577,1.5767,1.5777,1.5822,1.5827,1.5831,1.5853,1.586,1.5773,1.5773,1.5773,0,1.4883,1.4976,1.5028,1.5091,1.5135,1.5177,1.5237,1.5285,1.5382,1.5412,1.5411,1.5556,1.561,1.5705,1.5719,1.5751,1.577,1.5757,1.5822,1.5827,1.5832,1.5853,1.5861,1.5772,1.5772,1.5772,1.5772,0,1.4963,1.5027,1.5065,1.5157,1.5205,1.5266,1.5328,1.5372,1.5401,1.5447,1.553,1.5597,1.5678,1.5703,1.5732,1.5802,1.58,1.581,1.5807,1.5836,1.5857,1.5865,1.5771,1.5771,1.5771,1.5772,0,0,1.4975,1.5096,1.5109,1.5152,1.5243,1.5294,1.5358,1.5437,1.5474,1.554,1.5596,1.5692,1.5701,1.5749,1.5785,1.5825,1.5867,1.583,1.5833,1.5835,1.595,1.5943,1.5951,1.5883,1.5885,1.5886,1.5944,0,1.5022,1.5136,1.5186,1.5278,1.5339,1.5381,1.5437,1.5499,1.5544,1.5604,1.5654,1.5721,1.5728,1.5757,1.5798,1.5853,1.5891,1.585,1.5937,1.5939,1.5916,1.5962,1.5954,1.6006,1.5953,1.5954,1.5955,0,1.5091,1.5157,1.5255,1.5341,1.5368,1.5417,1.5495,1.555,1.5623,1.5653,1.5707,1.5742,1.5812,1.5805,1.5903,1.5874,1.5913,1.5945,1.5949,1.5959,1.5949,1.5975,1.6024,1.6031,1.5968,1.5967,1.5966,0,1.5091,1.5205,1.5279,1.5314,1.5415,1.5449,1.5493,1.5565,1.561,1.5678,1.5708,1.5783,1.5824,1.5883,1.5937,1.5927,1.6032,1.6028,1.606,1.6058,1.608,1.6078,1.6136,1.6104,1.6104,1.6103,1.6103,0,1.5138,1.5197,1.5281,1.5326,1.5394,1.5451,1.5517,1.5564,1.5628,1.5685,1.5725,1.5778,1.5846,1.5908,1.5951,1.6027,1.6046,1.6073,1.6084,1.607,1.6066,1.6096,1.6094,1.6106,1.6105,1.6105,1.6104,0,1.5149,1.5208,1.5292,1.5381,1.5405,1.5451,1.5528,1.5575,1.5622,1.5693,1.5713,1.5788,1.5863,1.5923,1.6021,1.605,1.613,1.6142,1.6105,1.6111,1.6139,1.6136,1.6219,1.6234,1.619,1.6191,1.6191,0,1.5175,1.5222,1.5316,1.5357,1.54,1.5465,1.5511,1.557,1.5617,1.5704,1.5741,1.5818,1.5884,1.6002,1.6066,1.6141,1.6156,1.618,1.6168,1.6152,1.6158,1.6154,1.616,1.6181,1.6181,1.6182,1.6182,0,1.5216,1.5243,1.5308,1.5383,1.5437,1.5499,1.5563,1.5594,1.5664,1.5715,1.5792,1.5843,1.5943,1.6021,1.6103,1.615,1.6178,1.6185,1.6197,1.6183,1.616,1.6174,1.6109,1.6183,1.6183,1.6183,1.6183,1.6183,1.5237,1.528,1.5354,1.5425,1.5479,1.5538,1.5587,1.564,1.5705,1.5791,1.5822,1.5901,1.5975,1.6089,1.6137,1.6201,1.6203,1.6219,1.6224,1.6227,1.6226,1.6149,1.6216,1.6216,1.6216,1.6216,1.6216,0,1.528,1.533,1.5395,1.5482,1.5539,1.556,1.5632,1.5678,1.5747,1.5813,1.5877,1.5966,1.6042,1.6112,1.6191,1.6229,1.6244,1.6248,1.6246,1.6257,1.6218,1.6201,1.6235,1.6235,1.6235,1.6235,1.6235,1.6235,1.5309,1.5385,1.5421,1.5524,1.5574,1.5652,1.5691,1.5746,1.58,1.5897,1.596,1.6005,1.6074,1.6159,1.623,1.6249,1.6276,1.6277,1.6299,1.6262,1.6259,1.6257,1.6241,1.6282,1.6283,1.6333,1.6333,1.6334]},{"header":{"parameterUnit":"m.s-1","parameterCategory":1,"la1":30.2991,"la2":30.254,"lo1":-89.0895,"lo2":-89.0444,"dy":0.0017,"dx":0.0017,"nx":28,"ny":28,"refTime":"2023-07-21T21:00:00:Z","depth":0,"parameterNumber":3,"parameterNumberName":"V-component_of_WINDS"},"data":[0,0,0,0,0,0,0,0,0,0,0,0,0,0,0,0,0,0,0,0,0,0,0,0,0,0,0,0,0,0,0,0,0,0,0,0,0,0,0,0,0,0,0,0,0,0,0,0,0,0,0,0,0,0,0,0,0,0,4.949,4.9492,0,4.9597,4.9598,4.96,4.9608,4.9607,4.9606,4.9604,4.9707,4.9711,4.9715,0,0,0,0,0,0,0,0,0,0,0,0,0,4.9286,4.929,4.949,4.9492,4.9493,4.9597,4.9598,4.96,4.9608,4.9607,4.9605,4.9604,4.9706,4.9711,4.9715,0,0,0,0,0,0,0,0,0,0,0,0,0,4.9382,4.9291,4.949,4.951,4.9513,4.9597,4.9598,4.96,4.9608,4.9607,4.9605,4.9603,4.9705,4.971,4.9716,4.9786,0,0,4.9733,4.9736,0,0,0,0,0,0,0,0,4.9376,4.9389,4.9505,4.9509,4.9512,4.9588,4.9564,4.9662,4.9609,4.9572,4.9604,4.9602,4.9668,4.9677,4.9701,4.979,4.9795,4.9734,4.9737,4.974,4.9741,0,0,0,0,0,0,0,4.937,4.9385,4.9532,4.9507,4.9511,4.9511,4.9523,4.9583,4.9628,4.9575,4.9576,4.9589,4.967,4.9695,4.9703,4.9796,4.9734,4.9739,4.9742,4.9744,4.9947,4.9949,0,0,0,0,0,0,4.936,4.9379,4.9529,4.9536,4.9439,4.9516,4.9529,4.9565,4.9628,4.9636,4.959,4.9589,4.9686,4.9696,4.9707,4.9792,4.974,4.9745,4.9748,4.9945,4.9947,4.9949,0,0,0,0,0,0,4.9356,4.9374,4.9525,4.9458,4.9477,4.9521,4.9561,4.9568,4.9593,4.9639,4.9647,4.9608,4.9685,4.9699,4.9766,4.9796,4.9748,4.9753,4.9943,4.9946,4.9948,4.9963,0,0,0,0,0,0,4.935,4.9372,4.9401,4.9458,4.9481,4.9584,4.9563,4.9571,4.9604,4.9603,4.9658,4.9665,4.9685,4.9757,4.9772,4.9803,4.9757,4.994,4.9944,4.9947,4.996,4.9966,4.9971,0,0,0,0,0,4.9343,4.94,4.9402,4.942,4.9518,4.9586,4.9599,4.9622,4.9606,4.9634,4.9664,4.9664,4.979,4.9764,4.978,4.9813,4.9938,4.9943,4.9947,4.9958,4.9965,4.9971,0,0,0,0,0,0,4.9342,4.9408,4.9411,4.9489,4.9532,4.9588,4.9624,4.9629,4.9676,4.9673,4.9697,4.971,4.9776,4.9801,4.9771,4.9883,4.9862,4.987,4.9865,4.9872,4.9878,4.987,4.9762,0,0,0,0,0,4.9352,4.9404,4.9457,4.952,4.9542,4.9579,4.961,4.9624,4.9669,4.9687,4.9721,4.9762,4.9811,4.9843,4.9891,4.9964,4.9975,4.9994,5.0,5.0004,5.001,5.005,5.0059,4.9964,4.9964,4.9964,0,0,4.9371,4.9413,4.9444,4.9521,4.9557,4.9608,4.9594,4.965,4.9687,4.9694,4.9761,4.9787,4.9834,4.9905,4.9937,4.9928,5.0039,5.001,5.0013,5.0017,5.0055,5.0064,5.0072,4.9967,4.9966,4.9966,0,0,4.9432,4.947,4.9526,4.9562,4.9616,4.964,4.9654,4.9708,4.9727,4.9794,4.98,4.9844,4.9928,4.9962,4.999,5.0062,5.0064,5.0077,5.0106,5.0144,5.0152,5.0158,5.0184,5.0192,5.0083,5.0083,5.0083,0,4.9448,4.9529,4.9554,4.961,4.9642,4.9653,4.9709,4.9741,4.9807,4.9829,4.9818,4.9923,4.9956,5.0034,5.0052,5.0074,5.0089,5.0071,5.0149,5.0156,5.0162,5.0187,5.0196,5.0084,5.0084,5.0084,5.0084,0,4.9545,4.96,4.9639,4.9705,4.9742,4.9797,4.9829,4.9863,4.9873,4.9898,4.9965,5.0005,5.0061,5.008,5.009,5.0159,5.0151,5.0144,5.0123,5.0172,5.0196,5.0205,5.0086,5.0086,5.0085,5.0085,0,0,4.961,4.9689,4.9703,4.9732,4.9792,4.9834,4.9888,4.9945,4.9973,5.0018,5.0063,5.0134,5.0128,5.0159,5.0173,5.0206,5.026,5.0195,5.0196,5.0205,5.0337,5.0343,5.0353,5.0261,5.0263,5.0265,5.0333,0,4.9677,4.9778,4.9802,4.9887,4.9937,4.9947,4.9994,5.0035,5.0059,5.0103,5.0128,5.0178,5.0166,5.0186,5.0219,5.0247,5.0287,5.0242,5.0302,5.0304,5.029,5.0365,5.0371,5.0434,5.0342,5.0344,5.0345,0,4.977,4.9819,4.991,4.9963,4.9984,5.0027,5.008,5.0123,5.0168,5.0183,5.0218,5.0228,5.0283,5.0259,5.0334,5.0303,5.0328,5.0345,5.0348,5.0355,5.0328,5.0374,5.0455,5.0464,5.036,5.0359,5.0358,0,4.9808,4.9896,4.9961,4.9986,5.005,5.0079,5.0106,5.015,5.0182,5.0227,5.0248,5.0298,5.0325,5.0363,5.0385,5.0366,5.0458,5.0436,5.047,5.047,5.0489,5.0488,5.0576,5.0506,5.0505,5.0505,5.0505,0,4.9881,4.9936,4.9979,5.002,5.008,5.0106,5.0165,5.0192,5.023,5.0274,5.0285,5.0325,5.0352,5.0396,5.0413,5.0472,5.0484,5.0496,5.05,5.0496,5.0494,5.0513,5.0509,5.0508,5.0507,5.0507,5.0506,0,4.9934,4.9965,5.0037,5.0091,5.0106,5.0149,5.0194,5.0232,5.0256,5.0311,5.0325,5.0362,5.0414,5.044,5.0503,5.0515,5.0581,5.0582,5.0567,5.0568,5.0601,5.0598,5.0704,5.0719,5.0639,5.064,5.064,0,4.9979,5.0021,5.008,5.0112,5.014,5.019,5.0223,5.0249,5.0283,5.0337,5.0368,5.0421,5.0464,5.0546,5.0577,5.0625,5.0628,5.0661,5.0635,5.0629,5.0628,5.0625,5.0629,5.0666,5.0667,5.0668,5.0668,0,5.0055,5.0068,5.0117,5.0171,5.021,5.0253,5.0296,5.032,5.0352,5.0389,5.0443,5.0477,5.0543,5.0594,5.0645,5.067,5.0674,5.0676,5.0687,5.0683,5.0672,5.0678,5.058,5.0674,5.0673,5.0673,5.0673,5.0672,5.0105,5.0143,5.0191,5.0244,5.0279,5.0318,5.0357,5.0386,5.0432,5.049,5.0501,5.0558,5.06,5.0669,5.0696,5.0739,5.0731,5.0747,5.075,5.0754,5.0756,5.0665,5.0748,5.0748,5.0748,5.0748,5.0748,0,5.0182,5.0213,5.0262,5.0322,5.0363,5.0365,5.0411,5.0445,5.0496,5.0536,5.0579,5.064,5.069,5.0725,5.0775,5.0803,5.0806,5.0815,5.0814,5.0819,5.0759,5.0746,5.0812,5.0812,5.0812,5.0812,5.0812,5.0812,5.0227,5.0291,5.031,5.0391,5.0421,5.0479,5.0505,5.0541,5.0573,5.0642,5.0684,5.0707,5.0744,5.0797,5.0842,5.0851,5.0868,5.0878,5.0886,5.083,5.0823,5.0817,5.0804,5.0882,5.0882,5.0943,5.0943,5.0944]}]]